This is the latest recevied weather packets stored in our database for station/object ED3YAB-7. If no packets are shown the sender has not sent any weather packets the latest 10 day(s).
| Time | Temp. | Humidity | Pressure | Rain* | Wind** | Luminosity | Snow |
|---|---|---|---|---|---|---|---|
| 1777476803 | 39.44° C | 12% | 1016.7 hPa | - | - | - | - |
| 1777475605 | 42.78° C | 9% | 1016.8 hPa | - | - | - | - |
| 1777474419 | 41.67° C | 10% | 1016.8 hPa | - | - | - | - |
| 1777474405 | 41.67° C | 10% | 1016.8 hPa | - | - | - | - |
| 1777473212 | 33.89° C | 15% | 1016.8 hPa | - | - | - | - |
| 1777472004 | 38.89° C | 11% | 1016.9 hPa | - | - | - | - |
| 1777470804 | 39.44° C | 11% | 1017.1 hPa | - | - | - | - |
| 1777469611 | 40° C | 13% | 1017 hPa | - | - | - | - |
| 1777468411 | 38.89° C | 15% | 1017.5 hPa | - | - | - | - |
| 1777468404 | 38.89° C | 15% | 1017.5 hPa | - | - | - | - |
| 1777467211 | 35° C | 19% | 1017.6 hPa | - | - | - | - |
| 1777467204 | 35° C | 19% | 1017.6 hPa | - | - | - | - |
| 1777466011 | 26.11° C | 30% | 1017.5 hPa | - | - | - | - |
| 1777466011 | 26.11° C | 30% | 1017.5 hPa | - | - | - | - |
| 1777464812 | 25.56° C | 32% | 1017.6 hPa | - | - | - | - |
| 1777464803 | 25.56° C | 32% | 1017.6 hPa | - | - | - | - |
| 1777463614 | 23.89° C | 36% | 1017.6 hPa | - | - | - | - |
| 1777463603 | 23.89° C | 36% | 1017.6 hPa | - | - | - | - |
| 1777462403 | 23.33° C | 37% | 1017.9 hPa | - | - | - | - |
| 1777461203 | 22.78° C | 38% | 1017.9 hPa | - | - | - | - |
| 1777460003 | 22.22° C | 41% | 1018.1 hPa | - | - | - | - |
| 1777458810 | 22.78° C | 41% | 1017.9 hPa | - | - | - | - |
| 1777458803 | 22.78° C | 41% | 1017.9 hPa | - | - | - | - |
| 1777457614 | 22.78° C | 41% | 1017.8 hPa | - | - | - | - |
| 1777457602 | 22.78° C | 41% | 1017.8 hPa | - | - | - | - |
* Rain since midnight (hover to see other rain measurements)
** Current wind speed in m/s (hover to see current wind gust speed)